Total_Precipitation_Accumulation
0.00 0.00 0.00 0.00 0.00 0.00 0.00 0.00 0.00 0.00 0.00 0.00 0.00 0.02 0.10 0.15 0.04 0.06 0.04 0.14 0.05 0.01 0.02 0.03 0.02 0.02 0.01 0.06 0.05 0.17 0.46 0.71 1.02 1.03 0.76 0.62 0.65 0.88 0.72 0.66 0.62 0.98 1.20 1.90
0.01 0.01 0.00 0.00 0.00 0.00 0.00 0.00 0.00 0.00 0.00 0.00 0.00 0.00 0.02 0.07 0.01 0.01 0.01 0.14 0.03 0.01 0.01 0.01 0.00 0.00 0.01 0.06 0.12 0.20 0.44 0.72 0.87 0.81 0.56 0.34 0.37 0.43 0.54 0.58 0.68 0.76 0.85 1.22
0.04 0.01 0.00 0.01 0.03 0.02 0.01 0.00 0.00 0.00 0.00 0.00 0.01 0.01 0.02 0.02 0.02 0.06 0.02 0.00 0.00 0.00 0.00 0.00 0.00 0.01 0.04 0.08 0.13 0.31 0.45 0.57 0.63 0.56 0.46 0.36 0.48 0.51 0.71 0.79 0.91 0.69 0.74 0.99
0.14 0.02 0.02 0.02 0.02 0.01 0.04 0.00 0.01 0.01 0.02 0.05 0.01 0.08 0.09 0.03 0.01 0.04 0.02 0.01 0.05 0.07 0.01 0.00 0.01 0.02 0.07 0.16 0.24 0.40 0.54 0.63 0.63 0.50 0.42 0.37 0.32 0.30 0.31 0.27 0.51 0.76 0.82 1.21
0.10 0.04 0.06 0.05 0.02 0.02 0.04 0.01 0.03 0.02 0.02 0.05 0.02 0.06 0.10 0.02 0.01 0.02 0.04 0.04 0.12 0.14 0.08 0.05 0.04 0.04 0.08 0.18 0.22 0.31 0.48 0.56 0.44 0.33 0.22 0.20 0.15 0.16 0.17 0.11 0.15 0.43 0.71 0.60
0.04 0.06 0.04 0.03 0.01 0.04 0.04 0.05 0.02 0.01 0.06 0.20 0.04 0.05 0.08 0.04 0.07 0.09 0.15 0.14 0.15 0.17 0.12 0.13 0.16 0.10 0.14 0.23 0.21 0.26 0.35 0.30 0.24 0.20 0.21 0.15 0.17 0.17 0.12 0.09 0.12 0.20 0.42 0.86
0.04 0.07 0.02 0.00 0.01 0.01 0.08 0.21 0.27 0.22 0.16 0.10 0.01 0.09 0.08 0.15 0.28 0.33 0.43 0.57 0.45 0.31 0.23 0.16 0.12 0.10 0.11 0.23 0.36 0.29 0.29 0.26 0.19 0.15 0.15 0.19 0.20 0.18 0.18 0.19 0.29 0.39 0.50 0.83
0.09 0.06 0.00 0.00 0.00 0.03 0.03 0.11 0.22 0.30 0.19 0.12 0.14 0.20 0.33 0.69 0.47 0.74 0.73 0.85 0.81 0.66 0.49 0.34 0.24 0.20 0.15 0.11 0.18 0.31 0.49 0.53 0.48 0.40 0.36 0.39 0.42 0.41 0.41 0.46 0.65 0.64 0.47 0.46
0.05 0.03 0.00 0.00 0.00 0.04 0.18 0.17 0.10 0.47 0.46 0.49 0.15 0.05 0.37 0.96 1.30 1.10 1.10 0.93 0.68 0.62 0.57 0.50 0.38 0.27 0.22 0.18 0.35 0.41 0.37 0.31 0.46 0.61 0.52 0.55 0.61 0.68 0.82 0.80 0.83 0.79 0.56 0.39
0.06 0.13 0.02 0.00 0.01 0.01 0.10 0.24 0.67 1.01 0.87 0.41 0.06 0.27 0.76 0.78 1.15 0.99 0.96 0.87 0.70 0.49 0.44 0.32 0.25 0.27 0.30 0.62 0.97 1.06 0.91 0.74 0.71 0.79 0.73 0.78 0.86 0.87 0.90 0.78 0.94 0.83 0.78 0.74
0.05 0.11 0.08 0.05 0.03 0.05 0.11 0.33 0.62 0.81 0.50 0.56 0.33 0.85 1.22 1.12 0.89 0.56 0.56 0.51 0.39 0.20 0.13 0.14 0.19 0.26 0.44 0.57 0.84 1.07 1.28 1.65 1.41 1.37 1.42 1.19 1.00 1.13 1.14 1.10 1.10 1.13 1.04 1.06
0.22 0.28 0.12 0.02 0.00 0.02 0.09 0.17 0.49 1.14 0.98 0.84 0.76 1.00 0.81 0.56 0.40 0.12 0.03 0.05 0.09 0.08 0.08 0.07 0.07 0.10 0.32 0.55 0.70 0.82 1.13 1.80 1.70 1.32 1.55 1.67 1.40 1.71 2.06 2.10 1.80 1.93 1.88 1.64
0.33 0.63 0.54 0.28 0.22 0.13 0.12 0.18 0.35 0.64 0.97 0.88 1.08 0.77 0.86 0.42 0.14 0.04 0.02 0.04 0.04 0.06 0.06 0.07 0.09 0.12 0.20 0.37 0.58 0.75 1.07 1.58 1.75 1.93 1.82 1.65 1.39 1.76 1.58 1.21 0.99 0.86 0.82 0.79
0.50 0.49 0.53 0.47 0.38 0.44 0.35 0.22 0.33 0.97 1.52 0.95 0.59 0.36 0.95 1.15 0.64 0.33 0.14 0.11 0.11 0.10 0.14 0.15 0.16 0.19 0.25 0.42 0.58 0.74 1.26 1.48 1.40 1.70 1.73 1.52 1.37 1.28 1.03 0.88 0.78 0.66 0.58 0.36
0.87 0.85 0.60 0.39 0.29 0.34 0.42 0.32 0.26 0.49 0.61 0.98 0.41 0.42 0.64 1.15 1.24 0.80 0.29 0.17 0.18 0.16 0.13 0.21 0.23 0.23 0.23 0.31 0.37 0.45 0.58 1.06 1.21 1.46 1.92 1.82 1.57 1.43 1.52 1.54 1.41 0.88 0.77 0.66
0.95 0.98 0.67 0.42 0.40 0.33 0.25 0.11 0.25 0.36 0.39 0.53 0.42 0.51 0.67 0.84 0.97 0.74 0.60 0.36 0.27 0.25 0.22 0.24 0.28 0.29 0.29 0.28 0.24 0.29 0.38 0.45 0.62 0.72 1.17 1.61 1.98 1.30 1.35 1.62 1.84 1.41 0.99 1.07
0.83 0.98 0.89 0.57 0.32 0.61 0.51 0.08 0.12 0.20 0.36 0.59 0.73 0.51 0.40 0.55 0.69 0.47 0.46 0.43 0.38 0.41 0.23 0.22 0.23 0.21 0.25 0.27 0.27 0.33 0.40 0.38 0.49 0.65 1.01 1.16 1.44 1.87 1.48 1.69 1.88 2.15 1.78 1.43
0.85 0.87 1.29 0.98 0.60 1.25 0.30 0.17 0.27 0.28 0.45 0.54 0.59 0.46 0.40 0.37 0.74 0.76 0.40 0.50 0.54 0.65 0.77 0.45 0.39 0.38 0.42 0.48 0.52 0.56 0.62 0.69 0.77 0.87 1.04 1.25 1.18 1.69 2.05 1.76 1.74 1.76 1.89 2.00
0.43 0.80 1.50 1.47 1.16 0.50 0.16 0.28 0.53 0.62 0.62 0.44 0.39 0.33 0.29 0.29 0.38 0.77 0.67 0.54 0.63 0.75 0.98 1.25 0.84 0.75 0.89 0.91 1.02 1.18 1.24 1.25 1.19 1.41 1.57 1.72 1.79 1.83 1.94 2.24 2.07 2.10 1.94 1.93
0.63 0.82 1.48 1.39 1.43 0.91 0.75 0.26 0.21 0.62 0.73 0.31 0.30 0.31 0.36 0.35 0.48 0.59 0.65 0.79 0.90 0.84 0.71 0.74 1.10 1.15 1.12 1.33 1.13 1.15 1.37 1.51 1.62 1.61 1.68 1.77 1.82 1.94 2.15 2.42 2.50 2.34 2.12 1.82
0.77 1.13 1.44 1.18 1.27 0.80 0.47 0.26 0.36 0.77 0.76 0.25 0.33 0.37 0.44 0.71 0.67 0.92 0.93 1.05 1.14 0.64 0.55 0.58 0.55 0.77 1.04 1.13 1.33 1.32 1.31 1.48 1.64 1.84 1.67 1.56 1.54 1.67 1.75 1.72 1.80 2.04 2.20 2.11
0.83 0.95 1.10 1.40 1.94 1.19 0.12 0.30 0.65 0.83 0.46 0.31 0.38 0.40 0.43 0.50 0.49 0.87 0.93 0.98 0.98 0.75 0.45 0.38 0.43 0.43 0.36 0.30 0.42 0.84 1.28 1.63 1.77 1.78 1.56 1.38 1.32 1.34 1.40 1.39 1.44 1.38 1.49 1.79
1.45 1.20 1.29 1.01 1.00 0.57 0.30 0.43 0.49 0.41 0.42 0.44 0.60 0.64 0.60 0.71 0.88 0.91 0.89 0.98 1.11 0.76 0.29 0.16 0.15 0.10 0.08 0.09 0.11 0.22 0.48 0.86 1.28 1.44 1.39 1.22 1.10 0.98 0.87 0.92 1.09 1.21 1.22 1.18
0.59 0.56 0.99 0.96 0.67 0.39 0.53 0.44 0.25 0.25 0.28 0.30 0.31 0.74 1.07 1.30 1.29 1.28 1.27 1.02 0.84 0.60 0.20 0.07 0.03 0.02 0.08 0.11 0.13 0.16 0.29 0.41 0.50 0.56 0.67 0.68 0.67 0.73 0.67 0.65 0.67 0.68 0.78 0.89
0.51 0.75 0.71 1.03 0.97 0.70 0.66 0.94 0.62 0.44 0.32 0.32 0.33 0.25 0.41 0.56 0.63 0.45 0.46 0.54 0.55 0.57 0.39 0.16 0.12 0.15 0.18 0.13 0.14 0.22 0.29 0.37 0.50 0.55 0.55 0.56 0.55 0.53 0.53 0.58 0.62 0.56 0.74 0.73
0.39 0.97 0.96 0.91 1.14 1.28 1.36 0.89 0.72 0.81 0.61 0.44 0.22 0.18 0.24 0.33 0.43 0.43 0.38 0.34 0.38 0.47 0.45 0.36 0.32 0.27 0.23 0.21 0.32 0.39 0.36 0.29 0.33 0.38 0.46 0.51 0.44 0.41 0.39 0.40 0.57 0.76 0.79 0.74